TimeEST,TemperatureF,Dew PointF,Humidity,Sea Level PressureIn,VisibilityMPH,Wind Direction,Wind SpeedMPH,Gust SpeedMPH,PrecipitationIn,Events,Conditions,WindDirDegrees,DateUTC
12:53 AM,73.0,68.0,84,30.09,10.0,Calm,Calm,-,N/A,,Scattered Clouds,0,2014-02-23 05:53:00
1:53 AM,73.0,68.0,84,30.06,10.0,SE,3.5,-,N/A,,Clear,140,2014-02-23 06:53:00
2:53 AM,73.0,69.1,87,30.05,10.0,Calm,Calm,-,N/A,,Clear,0,2014-02-23 07:53:00
3:53 AM,71.1,68.0,90,30.05,10.0,Calm,Calm,-,N/A,,Clear,0,2014-02-23 08:53:00
4:53 AM,72.0,69.1,91,30.05,10.0,Calm,Calm,-,N/A,,Clear,0,2014-02-23 09:53:00
5:53 AM,69.1,66.9,93,30.06,10.0,Calm,Calm,-,N/A,,Clear,0,2014-02-23 10:53:00
6:53 AM,70.0,68.0,93,30.08,10.0,Calm,Calm,-,N/A,,Scattered Clouds,0,2014-02-23 11:53:00
7:53 AM,73.9,71.1,91,30.09,10.0,Calm,Calm,-,N/A,,Partly Cloudy,0,2014-02-23 12:53:00
8:53 AM,78.1,70.0,76,30.10,10.0,South,6.9,-,N/A,,Partly Cloudy,180,2014-02-23 13:53:00
9:53 AM,81.0,69.1,67,30.10,10.0,SSE,8.1,-,N/A,,Partly Cloudy,150,2014-02-23 14:53:00
10:53 AM,82.9,68.0,60,30.09,10.0,SSE,8.1,-,N/A,,Partly Cloudy,160,2014-02-23 15:53:00
11:53 AM,84.0,69.1,61,30.08,10.0,SSE,11.5,16.1,N/A,,Scattered Clouds,150,2014-02-23 16:53:00
12:53 PM,84.0,69.1,61,30.06,10.0,SSE,9.2,-,N/A,,Scattered Clouds,150,2014-02-23 17:53:00
1:53 PM,81.0,70.0,69,30.04,10.0,SE,11.5,-,N/A,,Scattered Clouds,130,2014-02-23 18:53:00
2:53 PM,84.0,70.0,63,30.01,10.0,SE,15.0,-,0.00,,Partly Cloudy,130,2014-02-23 19:53:00
3:53 PM,84.0,69.1,61,30.01,10.0,SE,15.0,-,N/A,,Clear,130,2014-02-23 20:53:00
4:53 PM,81.0,70.0,69,30.01,10.0,SSE,11.5,-,N/A,,Scattered Clouds,150,2014-02-23 21:53:00
5:53 PM,79.0,69.1,72,30.01,10.0,SSE,6.9,-,N/A,,Scattered Clouds,150,2014-02-23 22:53:00
6:53 PM,78.1,71.1,79,30.01,10.0,SSE,9.2,-,N/A,,Scattered Clouds,160,2014-02-23 23:53:00
7:53 PM,77.0,70.0,79,30.03,10.0,South,6.9,-,N/A,,Clear,190,2014-02-24 00:53:00
8:53 PM,77.0,70.0,79,30.03,10.0,SSW,5.8,-,N/A,,Scattered Clouds,200,2014-02-24 01:53:00
9:53 PM,75.9,70.0,82,30.03,10.0,SSE,5.8,-,N/A,,Clear,160,2014-02-24 02:53:00
10:53 PM,75.0,70.0,84,30.04,10.0,South,3.5,-,N/A,,Clear,190,2014-02-24 03:53:00
11:53 PM,75.0,70.0,84,30.04,10.0,Calm,Calm,-,N/A,,Scattered Clouds,0,2014-02-24 04:53:00